| time (UTC) | temp F | wind direction | speed MPH | gust MPH | rain 1hr in | rain 24hr in | rain mn in | humidity % | barometer mb |
| 20260506123447 | 47 | 357 | 1.0 | 6.0 | 0.00 | 0.00 | 0.40 | 86 | 1007.2 |
| 20260506122807 | 46 | 355 | 3.0 | 7.0 | 0.00 | 0.00 | 0.39 | 85 | 1007.3 |
| 20260506122127 | 47 | 358 | 4.0 | 6.0 | 0.00 | 0.00 | 0.39 | 85 | 1007.3 |
| 20260506121446 | 47 | 356 | 3.0 | 8.0 | 0.00 | 0.00 | 0.39 | 87 | 1007.2 |
| 20260506120808 | 47 | 356 | 2.0 | 8.0 | 0.00 | 0.00 | 0.39 | 89 | 1007.1 |
| 20260506120127 | 47 | 358 | 2.0 | 5.0 | 0.00 | 0.00 | 0.39 | 89 | 1007.0 |
| 20260506115447 | 0 | 357 | 3.0 | 3.0 | 0.00 | 0.00 | 0.39 | ||
| 20260506114659 | 46 | 357 | 6.0 | 9.0 | 0.00 | 0.00 | 0.38 | 89 | 1006.9 |
| 20260506114019 | 46 | 357 | 1.0 | 6.0 | 0.00 | 0.00 | 0.38 | 90 | 1007.0 |
| 20260506113344 | 0 | 357 | 0.0 | 7.0 | 0.00 | 0.00 | 0.38 | ||
| 20260506112550 | 46 | 357 | 4.0 | 9.0 | 0.00 | 0.00 | 0.38 | 90 | 1007.0 |
| 20260506111911 | 0 | 355 | 4.0 | 3.0 | 0.00 | 0.00 | 0.38 | ||
| 20260506111123 | 0 | 358 | 1.0 | 6.0 | 0.00 | 0.00 | 0.37 | ||
| 20260506110334 | 0 | 356 | 2.0 | 6.0 | 0.00 | 0.00 | 0.37 | ||
| 20260506105545 | 46 | 358 | 1.0 | 5.0 | 0.00 | 0.00 | 0.36 | 88 | 1007.2 |
| 20260506104907 | 0 | 357 | 0.0 | 7.0 | 0.00 | 0.00 | 0.36 | ||
| 20260506104116 | 0 | 358 | 3.0 | 8.0 | 0.00 | 0.00 | 0.36 | ||
| 20260506102847 | 46 | 355 | 4.0 | 9.0 | 0.00 | 0.00 | 0.35 | 87 | 1006.8 |
| 20260506102209 | 0 | 355 | 6.0 | 7.0 | 0.00 | 0.00 | 0.35 | ||
| 20260506101419 | 0 | 358 | 4.0 | 6.0 | 0.00 | 0.00 | 0.34 | ||
| 20260506100630 | 46 | 358 | 3.0 | 10.0 | 0.00 | 0.00 | 0.34 | 89 | 1006.7 |
| 20260506095951 | 0 | 355 | 5.0 | 10.0 | 0.00 | 0.00 | 0.34 | ||
| 20260506095200 | 47 | 356 | 4.0 | 10.0 | 0.00 | 0.00 | 0.33 | 89 | 1007.1 |
| 20260506094520 | 47 | 358 | 4.0 | 10.0 | 0.00 | 0.00 | 0.32 | 90 | 1007.2 |
| 20260506093839 | 47 | 357 | 1.0 | 8.0 | 0.00 | 0.00 | 0.32 | 92 | 1007.2 |
| 20260506093159 | 48 | 355 | 2.0 | 8.0 | 0.00 | 0.00 | 0.32 | 93 | 1007.2 |
| 20260506092519 | 48 | 357 | 2.0 | 9.0 | 0.00 | 0.00 | 0.31 | 94 | 1007.2 |
| 20260506091840 | 47 | 359 | 2.0 | 9.0 | 0.00 | 0.00 | 0.30 | 94 | 1006.9 |
| 20260506091200 | 48 | 358 | 1.0 | 7.0 | 0.00 | 0.00 | 0.30 | 94 | 1006.9 |
| 20260506090520 | 48 | 358 | 1.0 | 4.0 | 0.00 | 0.00 | 0.30 | 94 | 1006.8 |
| 20260506085841 | 48 | 358 | 0.0 | 4.0 | 0.00 | 0.00 | 0.28 | 93 | 1006.9 |
| 20260506085200 | 48 | 358 | 0.0 | 4.0 | 0.00 | 0.00 | 0.28 | 93 | 1006.9 |
| 20260506084521 | 48 | 358 | 0.0 | 4.0 | 0.00 | 0.00 | 0.26 | 93 | 1006.8 |
| 20260506083840 | 48 | 358 | 0.0 | 7.0 | 0.00 | 0.00 | 0.26 | 92 | 1006.8 |
| 20260506083200 | 48 | 357 | 4.0 | 3.0 | 0.00 | 0.00 | 0.26 | 93 | 1006.6 |
| 20260506082257 | 48 | 359 | 0.0 | 7.0 | 0.00 | 0.00 | 0.25 | 93 | 1006.7 |
| 20260506081618 | 0 | 358 | 1.0 | 7.0 | 0.00 | 0.00 | 0.24 | ||
| 20260506080827 | 0 | 359 | 0.0 | 7.0 | 0.00 | 0.00 | 0.24 | ||
| 20260506073137 | 0 | 356 | 2.0 | 6.0 | 0.00 | 0.00 | 0.22 | ||
| 20260506072348 | 0 | 359 | 0.0 | 2.0 | 0.00 | 0.00 | 0.22 | ||
| 20260506071443 | 49 | 356 | 1.0 | 5.0 | 0.00 | 0.00 | 0.21 | 95 | 1006.8 |
| 20260506070804 | 49 | 358 | 0.0 | 0.0 | 0.00 | 0.00 | 0.21 | 95 | 1006.9 |
| 20260506070124 | 0 | 358 | 0.0 | 0.0 | 0.00 | 0.00 | 0.20 | ||
| 20260506062433 | 0 | 357 | 0.0 | 0.0 | 0.00 | 0.00 | 0.17 | ||
| 20260506061645 | 0 | 359 | 0.0 | 0.0 | 0.00 | 0.00 | 0.16 | ||
| 20260506060858 | 0 | 358 | 0.0 | 6.0 | 0.00 | 0.00 | 0.16 | ||
| 20260506060107 | 49 | 359 | 1.0 | 6.0 | 0.00 | 0.00 | 0.15 | 95 | 1007.0 |
| 20260506050947 | 49 | 358 | 0.0 | 0.0 | 0.00 | 0.00 | 0.12 | 94 | 1008.1 |
| 20260506050307 | 49 | 358 | 0.0 | 0.0 | 0.00 | 0.00 | 0.11 | 93 | 1008.1 |
| 20260506044719 | 0 | 358 | 0.0 | 0.0 | 0.00 | 0.00 | 0.09 | ||
| 20260506043931 | 50 | 356 | 0.0 | 0.0 | 0.00 | 0.00 | 0.08 | 94 | 1007.9 |
| 20260506043250 | 49 | 356 | 0.0 | 0.0 | 0.00 | 0.00 | 0.08 | 94 | 1007.9 |
| 20260506042346 | 49 | 357 | 0.0 | 0.0 | 0.00 | 0.00 | 0.07 | 94 | 1007.9 |
| 20260506041706 | 49 | 357 | 0.0 | 0.0 | 0.00 | 0.00 | 0.06 | 94 | 1007.9 |
| 20260506041027 | 0 | 358 | 0.0 | 0.0 | 0.00 | 0.00 | 0.05 | ||
| 20260506040236 | 49 | 358 | 0.0 | 0.0 | 0.00 | 0.00 | 0.03 | 93 | 1007.8 |
| 20260506035557 | 0 | 356 | 0.0 | 0.0 | 0.00 | 0.00 | 0.03 | ||
| 20260506034806 | 49 | 357 | 0.0 | 0.0 | 0.00 | 0.00 | 0.03 | 93 | 1007.7 |
| 20260506034126 | 49 | 358 | 0.0 | 0.0 | 0.00 | 0.00 | 0.03 | 93 | 1007.7 |
| 20260506033446 | 50 | 358 | 0.0 | 0.0 | 0.00 | 0.00 | 0.02 | 93 | 1007.7 |
| 20260506032807 | 49 | 356 | 0.0 | 0.0 | 0.00 | 0.00 | 0.01 | 92 | 1007.6 |
| 20260506032128 | 0 | 358 | 0.0 | 0.0 | 0.00 | 0.00 | 0.01 | ||
| 20260506031227 | 0 | 358 | 0.0 | 0.0 | 0.00 | 0.00 | 0.00 | ||
| 20260506030438 | 50 | 358 | 0.0 | 0.0 | 0.00 | 0.00 | 0.56 | 93 | 1008.1 |
| 20260506025759 | 0 | 357 | 0.0 | 0.0 | 0.00 | 0.00 | 0.55 | ||
| 20260506024900 | 0 | 358 | 0.0 | 0.0 | 0.00 | 0.00 | 0.54 | ||
| 20260506024108 | 50 | 359 | 0.0 | 0.0 | 0.00 | 0.00 | 0.53 | 93 | 1008.5 |
| 20260506023429 | 0 | 358 | 0.0 | 0.0 | 0.00 | 0.00 | 0.53 | ||
| 20260506022527 | 50 | 358 | 0.0 | 0.0 | 0.00 | 0.00 | 0.51 | 93 | 1008.6 |
| 20260506021848 | 0 | 358 | 0.0 | 0.0 | 0.00 | 0.00 | 0.51 | ||
| 20260506020946 | 0 | 358 | 0.0 | 0.0 | 0.00 | 0.00 | 0.50 | ||
| 20260506020153 | 0 | 359 | 0.0 | 0.0 | 0.00 | 0.00 | 0.50 | ||
| 20260506015401 | 50 | 359 | 0.0 | 0.0 | 0.00 | 0.00 | 0.50 | 93 | 1008.4 |
| 20260506014722 | 0 | 358 | 0.0 | 0.0 | 0.00 | 0.00 | 0.49 | ||
| 20260506013820 | 50 | 357 | 0.0 | 0.0 | 0.00 | 0.00 | 0.49 | 93 | 1008.3 |
| 20260506013142 | 50 | 357 | 0.0 | 5.0 | 0.00 | 0.00 | 0.49 | 92 | 1008.3 |
| 20260506012500 | 50 | 358 | 0.0 | 5.0 | 0.00 | 0.00 | 0.49 | 91 | 1008.5 |
| 20260506011823 | 0 | 360 | 0.0 | 0.0 | 0.00 | 0.00 | 0.48 | ||
| 20260506011026 | 50 | 357 | 0.0 | 0.0 | 0.00 | 0.00 | 0.47 | 92 | 1008.7 |
| 20260506010347 | 0 | 357 | 0.0 | 0.0 | 0.00 | 0.00 | 0.47 | ||
| 20260506005556 | 50 | 357 | 0.0 | 0.0 | 0.00 | 0.00 | 0.46 | 93 | 1008.5 |
| 20260506004918 | 50 | 358 | 0.0 | 0.0 | 0.00 | 0.00 | 0.46 | 93 | 1008.4 |
| 20260506004243 | 0 | 359 | 0.0 | 0.0 | 0.00 | 0.00 | 0.45 | ||
| 20260506003445 | 49 | 358 | 0.0 | 0.0 | 0.00 | 0.00 | 0.44 | 93 | 1008.4 |
| 20260506002809 | 0 | 356 | 0.0 | 0.0 | 0.00 | 0.00 | 0.43 | ||
| 20260506002014 | 0 | 358 | 0.0 | 0.0 | 0.00 | 0.00 | 0.42 | ||
| 20260506001223 | 50 | 358 | 0.0 | 0.0 | 0.00 | 0.00 | 0.41 | 94 | 1008.4 |
| 20260506000543 | 49 | 359 | 0.0 | 0.0 | 0.00 | 0.00 | 0.40 | 94 | 1008.1 |
| 20260505235904 | 50 | 359 | 0.0 | 0.0 | 0.00 | 0.00 | 0.40 | 95 | 1008.1 |
| 20260505235225 | 50 | 359 | 0.0 | 0.0 | 0.00 | 0.00 | 0.39 | 95 | 1008.0 |
| 20260505234543 | 50 | 358 | 0.0 | 0.0 | 0.00 | 0.00 | 0.39 | 95 | 1008.0 |
| 20260505233903 | 50 | 358 | 0.0 | 0.0 | 0.00 | 0.00 | 0.38 | 95 | 1008.0 |
| 20260505233222 | 49 | 358 | 0.0 | 0.0 | 0.00 | 0.00 | 0.37 | 96 | 1007.9 |
| 20260505232545 | 49 | 360 | 0.0 | 0.0 | 0.00 | 0.00 | 0.36 | 95 | 1007.9 |
| 20260505231902 | 49 | 358 | 0.0 | 0.0 | 0.00 | 0.00 | 0.35 | 96 | 1007.9 |
| 20260505231223 | 0 | 358 | 0.0 | 0.0 | 0.00 | 0.00 | 0.35 | ||
| 20260505230436 | 48 | 358 | 0.0 | 0.0 | 0.00 | 0.00 | 0.34 | 95 | 1007.6 |
| 20260505225755 | 49 | 358 | 0.0 | 7.0 | 0.00 | 0.00 | 0.33 | 95 | 1007.8 |
| 20260505225114 | 48 | 358 | 2.0 | 8.0 | 0.00 | 0.00 | 0.32 | 95 | 1007.9 |
| 20260505224436 | 0 | 358 | 4.0 | 5.0 | 0.00 | 0.00 | 0.31 | ||
| 20260505223644 | 0 | 357 | 4.0 | 10.0 | 0.00 | 0.00 | 0.29 | ||
| 20260505222856 | 0 | 357 | 4.0 | 4.0 | 0.00 | 0.00 | 0.28 | ||
| 20260505221734 | 0 | 356 | 3.0 | 10.0 | 0.00 | 0.00 | 0.26 | ||
| 20260505220723 | 51 | 357 | 6.0 | 14.0 | 0.00 | 0.00 | 0.24 | 93 | 1007.6 |
| 20260505220045 | 51 | 357 | 8.0 | 14.0 | 0.00 | 0.00 | 0.22 | 93 | 1007.6 |
| 20260505215405 | 51 | 356 | 7.0 | 11.0 | 0.00 | 0.00 | 0.20 | 91 | 1007.5 |
| 20260505214725 | 0 | 356 | 7.0 | 10.0 | 0.00 | 0.00 | 0.19 | ||
| 20260505213709 | 52 | 356 | 10.0 | 14.0 | 0.00 | 0.00 | 0.16 | 89 | 1007.4 |
| 20260505213030 | 52 | 355 | 9.0 | 6.0 | 0.00 | 0.00 | 0.15 | 88 | 1007.1 |
| 20260505211905 | 0 | 353 | 9.0 | 7.0 | 0.00 | 0.00 | 0.13 | ||
| 20260505211003 | 52 | 357 | 7.0 | 12.0 | 0.00 | 0.00 | 0.11 | 88 | 1006.9 |
| 20260505210332 | 53 | 355 | 7.0 | 13.0 | 0.00 | 0.00 | 0.09 | 86 | 1006.9 |
| 20260505205644 | 54 | 355 | 8.0 | 18.0 | 0.00 | 0.00 | 0.07 | 83 | 1006.7 |
| 20260505205003 | 54 | 355 | 9.0 | 18.0 | 0.00 | 0.00 | 0.06 | 81 | 1006.4 |
| 20260505204324 | 0 | 356 | 8.0 | 7.0 | 0.00 | 0.00 | 0.05 | ||
| 20260505203535 | 54 | 355 | 6.0 | 13.0 | 0.00 | 0.00 | 0.05 | 80 | 1006.0 |
| 20260505202855 | 54 | 354 | 8.0 | 14.0 | 0.00 | 0.00 | 0.05 | 79 | 1006.0 |
| 20260505202216 | 0 | 352 | 9.0 | 9.0 | 0.00 | 0.00 | 0.05 | ||
| 20260505201319 | 0 | 353 | 10.0 | 10.0 | 0.00 | 0.00 | 0.05 | ||
| 20260505200416 | 54 | 356 | 11.0 | 17.0 | 0.00 | 0.00 | 0.05 | 79 | 1006.1 |
| 20260505195736 | 55 | 352 | 10.0 | 16.0 | 0.00 | 0.00 | 0.05 | 75 | 1006.2 |
| 20260505195057 | 56 | 354 | 9.0 | 15.0 | 0.00 | 0.00 | 0.05 | 73 | 1006.0 |
| 20260505194417 | 0 | 355 | 9.0 | 6.0 | 0.00 | 0.00 | 0.05 | ||
| 20260505193627 | 57 | 352 | 12.0 | 21.0 | 0.00 | 0.00 | 0.05 | 71 | 1005.7 |
| 20260505192950 | 0 | 354 | 12.0 | 9.0 | 0.00 | 0.00 | 0.05 | ||
| 20260505192158 | 0 | 350 | 11.0 | 13.0 | 0.00 | 0.00 | 0.05 | ||
| 20260505191410 | 56 | 354 | 10.0 | 12.0 | 0.00 | 0.00 | 0.05 | 74 | 1005.7 |
| 20260505190505 | 56 | 354 | 9.0 | 16.0 | 0.00 | 0.00 | 0.05 | 73 | 1005.8 |
| 20260505185825 | 56 | 356 | 9.0 | 17.0 | 0.00 | 0.00 | 0.05 | 73 | 1005.9 |
| 20260505185145 | 56 | 357 | 9.0 | 18.0 | 0.00 | 0.00 | 0.05 | 73 | 1005.9 |
| 20260505184505 | 56 | 355 | 9.0 | 18.0 | 0.00 | 0.00 | 0.05 | 73 | 1005.9 |
| 20260505183825 | 56 | 354 | 9.0 | 17.0 | 0.00 | 0.00 | 0.05 | 72 | 1005.9 |
| 20260505183144 | 56 | 355 | 9.0 | 20.0 | 0.00 | 0.00 | 0.05 | 71 | 1005.7 |
| 20260505182509 | 57 | 354 | 10.0 | 22.0 | 0.00 | 0.00 | 0.05 | 70 | 1005.6 |
| 20260505181825 | 0 | 356 | 12.0 | 9.0 | 0.00 | 0.00 | 0.05 | ||
| 20260505180917 | 56 | 356 | 9.0 | 14.0 | 0.00 | 0.00 | 0.05 | 71 | 1005.5 |
| 20260505180238 | 0 | 355 | 8.0 | 10.0 | 0.00 | 0.00 | 0.05 | ||
| 20260505175446 | 56 | 354 | 8.0 | 15.0 | 0.00 | 0.00 | 0.05 | 71 | 1005.2 |
| 20260505174805 | 56 | 352 | 9.0 | 15.0 | 0.00 | 0.00 | 0.05 | 70 | 1005.2 |
| 20260505174130 | 56 | 355 | 8.0 | 14.0 | 0.00 | 0.00 | 0.05 | 69 | 1005.1 |
| 20260505173445 | 55 | 356 | 8.0 | 14.0 | 0.00 | 0.00 | 0.05 | 70 | 1005.2 |
| 20260505172806 | 0 | 356 | 8.0 | 10.0 | 0.00 | 0.00 | 0.05 | ||
| 20260505172017 | 0 | 355 | 7.0 | 10.0 | 0.00 | 0.00 | 0.05 | ||
| 20260505171114 | 54 | 355 | 7.0 | 12.0 | 0.00 | 0.00 | 0.05 | 72 | 1005.4 |
| 20260505170435 | 0 | 356 | 7.0 | 10.0 | 0.00 | 0.00 | 0.05 | ||
| 20260505165647 | 54 | 353 | 7.0 | 16.0 | 0.00 | 0.00 | 0.05 | 71 | 1005.1 |
| 20260505165007 | 54 | 355 | 9.0 | 16.0 | 0.00 | 0.00 | 0.05 | 69 | 1005.0 |
| 20260505164328 | 55 | 355 | 10.0 | 16.0 | 0.00 | 0.00 | 0.05 | 69 | 1005.0 |
| 20260505163646 | 56 | 354 | 9.0 | 22.0 | 0.00 | 0.00 | 0.05 | 66 | 1004.8 |
| 20260505163009 | 58 | 356 | 11.0 | 22.0 | 0.00 | 0.00 | 0.05 | 64 | 1004.5 |
| 20260505162326 | 56 | 355 | 11.0 | 19.0 | 0.00 | 0.00 | 0.05 | 68 | 1004.3 |
| 20260505161646 | 55 | 354 | 13.0 | 19.0 | 0.00 | 0.00 | 0.05 | 70 | 1004.4 |
| 20260505161008 | 54 | 354 | 11.0 | 16.0 | 0.00 | 0.00 | 0.05 | 72 | 1004.8 |
| 20260505160327 | 0 | 352 | 10.0 | 8.0 | 0.00 | 0.00 | 0.05 | ||
| 20260505152741 | 54 | 357 | 6.0 | 12.0 | 0.00 | 0.00 | 0.05 | 72 | 1004.5 |
| 20260505152101 | 53 | 355 | 8.0 | 12.0 | 0.00 | 0.00 | 0.05 | 74 | 1004.0 |
| 20260505151421 | 54 | 354 | 7.0 | 14.0 | 0.00 | 0.00 | 0.05 | 71 | 1003.8 |
| 20260505150741 | 54 | 356 | 8.0 | 14.0 | 0.00 | 0.00 | 0.05 | 69 | 1003.7 |
| 20260505140457 | 60 | 355 | 10.0 | 17.0 | 0.00 | 0.00 | 0.05 | 61 | 1003.1 |
| 20260505124614 | 0 | 354 | 14.0 | 18.0 | 0.00 | 0.00 | 0.05 |